Volver al catálogo

IRIDIUM 154

ActivoComunicacionesPO
NORAD 43574·PAYLOAD·🇺🇸 United States

Lanzado Jul 25, 2018 desde Vandenberg Space Force Base

Loading…

Próximos Pases (próximas 24 horas)

TLE

ActualizadoSource: CelesTrak SupGP

Época: Sep 14, 2026, 09:45 UTC

1 43574C 18061F   26257.40659722 -.00003561  00000+0 -12733-2 0  2577
2 43574  86.4013  19.4929 0002111  95.1081 320.9019 14.34222444    15

Sigue IRIDIUM 154 en tiempo real con AllMySat

Download on the App Store